Location: Cisewo
(53.3833°N, 14.9000°E)
Time: 11:59:13
(UTC+00:00)

Cosmos 1076 Rocket - Pass Details

Date: 18 April 2021
Orbit: 589 x 613 km, 82.5° (Epoch: 14 May)

Event Time Altitude Azimuth Distance (km) Brightness Sun altitude
Rises 19:02:27 0° 351° (N) 2,890 7.6 -8.3°
Reaches altitude 10° 19:04:45 10° 357° (N) 1,978 6.7 -8.6°
Maximum altitude 19:09:02 52° 74° (ENE) 761 3.8 -9.1°
Drops below altitude 10° 19:13:15 10° 152° (SSE) 1,949 5.6 -9.6°
Enters shadow 19:13:20 10° 152° (SSE) 1,979 5.6 -9.7°
